Time,TemperatureF,DewpointF,PressureIn,WindDirection,WindDirectionDegrees,WindSpeedMPH,WindSpeedGustMPH,Humidity,HourlyPrecipIn,Conditions,Clouds,dailyrainin,SoftwareType,DateUTC
2013-02-12 00:01:00,53.0,45.0,29.80,South,182,0.0,2.0,74,0.00,,,0.12,,2013-02-12 05:01:00,
2013-02-12 00:11:00,53.0,45.0,29.80,South,182,0.0,2.0,74,0.00,,,0.12,,2013-02-12 05:11:00,
2013-02-12 00:21:00,52.0,45.0,29.81,South,183,0.0,1.0,76,0.00,,,0.12,,2013-02-12 05:21:00,
2013-02-12 00:32:00,51.0,44.0,29.82,SSW,200,0.0,1.0,78,0.00,,,0.12,,2013-02-12 05:32:00,
2013-02-12 00:42:00,51.0,44.0,29.82,SSW,200,0.0,1.0,78,0.00,,,0.12,,2013-02-12 05:42:00,
2013-02-12 00:52:00,50.0,43.0,29.83,West,276,0.0,2.0,78,0.00,,,0.12,,2013-02-12 05:52:00,
2013-02-12 01:02:00,50.0,43.0,29.83,West,276,0.0,0.0,78,0.00,,,0.12,,2013-02-12 06:02:00,
2013-02-12 01:12:00,49.0,43.0,29.85,West,276,0.0,0.0,80,0.00,,,0.12,,2013-02-12 06:12:00,
2013-02-12 01:22:00,49.0,43.0,29.85,West,276,0.0,0.0,80,0.00,,,0.12,,2013-02-12 06:22:00,
2013-02-12 01:32:00,47.0,42.0,29.84,West,276,0.0,0.0,83,0.00,,,0.10,,2013-02-12 06:32:00,
2013-02-12 01:42:00,46.0,42.0,29.85,West,276,0.0,0.0,86,0.00,,,0.10,,2013-02-12 06:42:00,
2013-02-12 01:52:00,46.0,42.0,29.85,West,276,0.0,0.0,86,0.00,,,0.10,,2013-02-12 06:52:00,
2013-02-12 02:02:00,44.0,40.0,29.86,West,276,0.0,0.0,86,0.00,,,0.10,,2013-02-12 07:02:00,
2013-02-12 02:12:00,44.0,40.0,29.86,West,276,0.0,0.0,86,0.00,,,0.10,,2013-02-12 07:12:00,
2013-02-12 02:21:00,44.0,40.0,29.86,West,276,0.0,0.0,87,0.00,,,0.10,,2013-02-12 07:21:00,
2013-02-12 02:32:00,44.0,40.0,29.87,West,276,0.0,0.0,86,0.00,,,0.09,,2013-02-12 07:32:00,
2013-02-12 02:42:00,44.0,40.0,29.87,West,276,0.0,0.0,86,0.00,,,0.09,,2013-02-12 07:42:00,
2013-02-12 02:51:00,43.0,39.0,29.87,West,276,0.0,1.0,86,0.00,,,0.09,,2013-02-12 07:51:00,
2013-02-12 03:01:00,42.0,37.0,29.88,WNW,286,0.0,4.0,83,0.00,,,0.09,,2013-02-12 08:01:00,
2013-02-12 03:11:00,42.0,37.0,29.88,WNW,286,0.0,4.0,83,0.00,,,0.09,,2013-02-12 08:11:00,
2013-02-12 03:21:00,43.0,35.0,29.88,WNW,290,0.0,3.0,72,0.00,,,0.09,,2013-02-12 08:21:00,
2013-02-12 03:32:00,44.0,34.0,29.88,WNW,296,0.0,1.0,68,0.00,,,0.07,,2013-02-12 08:32:00,
2013-02-12 03:42:00,44.0,34.0,29.88,WNW,296,0.0,1.0,68,0.00,,,0.07,,2013-02-12 08:42:00,
2013-02-12 03:52:00,44.0,33.0,29.88,WNW,296,0.0,0.0,66,0.00,,,0.07,,2013-02-12 08:52:00,
2013-02-12 04:02:00,43.0,32.0,29.88,WNW,296,0.0,0.0,66,0.00,,,0.07,,2013-02-12 09:02:00,
2013-02-12 04:11:00,43.0,32.0,29.88,WNW,296,0.0,0.0,66,0.00,,,0.07,,2013-02-12 09:11:00,
2013-02-12 04:21:00,42.0,31.0,29.88,WNW,296,0.0,1.0,66,0.00,,,0.07,,2013-02-12 09:21:00,
2013-02-12 04:32:00,42.0,33.0,29.89,WNW,296,0.0,0.0,69,0.00,,,0.03,,2013-02-12 09:32:00,
2013-02-12 04:42:00,42.0,33.0,29.89,WNW,296,0.0,0.0,69,0.00,,,0.03,,2013-02-12 09:42:00,
2013-02-12 04:51:00,41.0,33.0,29.90,WNW,296,0.0,0.0,73,0.00,,,0.03,,2013-02-12 09:51:00,
2013-02-12 05:01:00,39.0,31.0,29.91,WNW,296,0.0,2.0,73,0.00,,,0.03,,2013-02-12 10:01:00,
2013-02-12 05:11:00,40.0,30.0,29.91,NNW,340,0.0,2.0,68,0.00,,,0.03,,2013-02-12 10:11:00,
2013-02-12 05:21:00,40.0,30.0,29.91,NNW,340,0.0,2.0,68,0.00,,,0.03,,2013-02-12 10:21:00,
2013-02-12 05:32:00,40.0,31.0,29.91,NW,320,0.0,2.0,71,0.00,,,0.02,,2013-02-12 10:32:00,
2013-02-12 05:43:00,40.0,31.0,29.91,NW,320,0.0,2.0,71,0.00,,,0.02,,2013-02-12 10:43:00,
2013-02-12 05:51:00,39.0,32.0,29.91,NW,320,0.0,1.0,75,0.00,,,0.02,,2013-02-12 10:51:00,
2013-02-12 06:02:00,38.0,31.0,29.91,NW,320,0.0,1.0,77,0.00,,,0.02,,2013-02-12 11:02:00,
2013-02-12 06:11:00,38.0,31.0,29.91,NW,320,0.0,1.0,77,0.00,,,0.02,,2013-02-12 11:11:00,
2013-02-12 06:22:00,38.0,30.0,29.92,NW,318,0.0,1.0,74,0.00,,,0.02,,2013-02-12 11:22:00,
2013-02-12 06:32:00,37.0,30.0,29.94,NW,318,0.0,1.0,77,0.00,,,0.01,,2013-02-12 11:32:00,
2013-02-12 06:42:00,37.0,30.0,29.94,NW,318,0.0,1.0,77,0.00,,,0.01,,2013-02-12 11:42:00,
2013-02-12 06:52:00,36.0,30.0,29.94,NW,318,0.0,0.0,80,0.00,,,0.01,,2013-02-12 11:52:00,
2013-02-12 07:02:00,36.0,29.0,29.95,NW,318,0.0,1.0,77,0.00,,,0.01,,2013-02-12 12:02:00,
2013-02-12 07:11:00,36.0,29.0,29.95,NW,318,0.0,1.0,77,0.00,,,0.01,,2013-02-12 12:11:00,
2013-02-12 07:21:00,37.0,29.0,29.95,NW,318,0.0,1.0,72,0.00,,,0.01,,2013-02-12 12:21:00,
2013-02-12 07:32:00,38.0,28.0,29.95,WSW,242,0.0,4.0,68,0.00,,,0.00,,2013-02-12 12:32:00,
2013-02-12 07:42:00,38.0,28.0,29.95,WSW,242,0.0,4.0,68,0.00,,,0.00,,2013-02-12 12:42:00,
2013-02-12 07:52:00,41.0,29.0,29.95,SW,217,0.0,1.0,62,0.00,,,0.00,,2013-02-12 12:52:00,
2013-02-12 08:02:00,42.0,29.0,29.95,SW,218,0.0,1.0,60,0.00,,,0.00,,2013-02-12 13:02:00,
2013-02-12 08:11:00,42.0,31.0,29.96,SSW,210,0.0,0.0,64,0.00,,,0.00,,2013-02-12 13:11:00,
2013-02-12 08:22:00,42.0,31.0,29.96,SSW,210,0.0,0.0,64,0.00,,,0.00,,2013-02-12 13:22:00,
2013-02-12 08:32:00,42.0,31.0,29.96,SSW,206,0.0,0.0,66,0.00,,,0.00,,2013-02-12 13:32:00,
2013-02-12 08:42:00,42.0,31.0,29.96,SSW,206,0.0,0.0,66,0.00,,,0.00,,2013-02-12 13:42:00,
2013-02-12 08:52:00,43.0,34.0,29.97,SW,218,0.0,1.0,69,0.00,,,0.00,,2013-02-12 13:52:00,
2013-02-12 09:01:00,44.0,33.0,29.96,SW,218,0.0,0.0,66,0.00,,,0.00,,2013-02-12 14:01:00,
2013-02-12 09:12:00,44.0,33.0,29.96,SW,218,0.0,0.0,66,0.00,,,0.00,,2013-02-12 14:12:00,
2013-02-12 09:22:00,46.0,34.0,29.97,SW,218,0.0,1.0,62,0.00,,,0.00,,2013-02-12 14:22:00,
2013-02-12 09:32:00,48.0,31.0,29.98,South,173,2.0,4.0,52,0.00,,,0.00,,2013-02-12 14:32:00,
2013-02-12 09:42:00,48.0,31.0,29.98,South,173,2.0,4.0,52,0.00,,,0.00,,2013-02-12 14:42:00,
2013-02-12 09:52:00,49.0,31.0,29.99,West,262,0.0,3.0,50,0.00,,,0.00,,2013-02-12 14:52:00,
2013-02-12 10:02:00,50.0,30.0,29.99,West,264,2.0,4.0,46,0.00,,,0.00,,2013-02-12 15:02:00,
2013-02-12 10:11:00,51.0,30.0,29.99,SW,226,1.0,4.0,45,0.00,,,0.00,,2013-02-12 15:11:00,
2013-02-12 10:21:00,51.0,30.0,29.99,SW,226,1.0,4.0,45,0.00,,,0.00,,2013-02-12 15:21:00,
2013-02-12 10:32:00,51.0,29.0,30.00,West,261,0.0,5.0,43,0.00,,,0.00,,2013-02-12 15:32:00,
2013-02-12 10:42:00,51.0,29.0,30.00,West,261,0.0,5.0,43,0.00,,,0.00,,2013-02-12 15:42:00,
2013-02-12 10:52:00,51.0,29.0,30.00,West,265,0.0,5.0,42,0.00,,,0.00,,2013-02-12 15:52:00,
2013-02-12 11:01:00,51.0,28.0,30.00,NW,317,0.0,5.0,40,0.00,,,0.00,,2013-02-12 16:01:00,
2013-02-12 11:11:00,51.0,28.0,30.00,NW,317,0.0,5.0,40,0.00,,,0.00,,2013-02-12 16:11:00,
2013-02-12 11:22:00,52.0,28.0,30.00,West,261,0.0,3.0,39,0.00,,,0.00,,2013-02-12 16:22:00,
2013-02-12 11:32:00,53.0,28.0,30.00,SSW,213,2.0,6.0,38,0.00,,,0.00,,2013-02-12 16:32:00,
2013-02-12 11:42:00,53.0,28.0,30.00,SSW,213,2.0,6.0,38,0.00,,,0.00,,2013-02-12 16:42:00,
2013-02-12 11:52:00,54.0,28.0,30.00,North,5,1.0,5.0,37,0.00,,,0.00,,2013-02-12 16:52:00,
2013-02-12 12:01:00,54.0,26.0,30.00,SW,224,2.0,6.0,34,0.00,,,0.00,,2013-02-12 17:01:00,
2013-02-12 12:12:00,54.0,26.0,30.00,SW,224,2.0,6.0,34,0.00,,,0.00,,2013-02-12 17:12:00,
2013-02-12 12:21:00,55.0,27.0,30.00,NE,53,0.0,7.0,34,0.00,,,0.00,,2013-02-12 17:21:00,
2013-02-12 12:32:00,55.0,26.0,29.99,WNW,286,3.0,6.0,33,0.00,,,0.00,,2013-02-12 17:32:00,
2013-02-12 12:42:00,55.0,26.0,29.99,WNW,286,3.0,6.0,33,0.00,,,0.00,,2013-02-12 17:42:00,
2013-02-12 12:52:00,56.0,27.0,29.99,NNE,22,1.0,9.0,32,0.00,,,0.00,,2013-02-12 17:52:00,
2013-02-12 13:02:00,56.0,27.0,29.99,NNW,346,3.0,7.0,33,0.00,,,0.00,,2013-02-12 18:02:00,
2013-02-12 13:12:00,57.0,27.0,29.98,NE,51,0.0,6.0,31,0.00,,,0.00,,2013-02-12 18:12:00,
2013-02-12 13:23:00,57.0,27.0,29.98,NE,51,0.0,6.0,31,0.00,,,0.00,,2013-02-12 18:23:00,
2013-02-12 13:32:00,57.0,27.0,29.97,NW,305,4.0,8.0,31,0.00,,,0.00,,2013-02-12 18:32:00,
2013-02-12 13:42:00,57.0,27.0,29.97,NW,305,4.0,8.0,31,0.00,,,0.00,,2013-02-12 18:42:00,
2013-02-12 13:51:00,58.0,26.0,29.96,NNW,336,2.0,5.0,29,0.00,,,0.00,,2013-02-12 18:51:00,
2013-02-12 14:02:00,58.0,27.0,29.93,ENE,69,3.0,7.0,30,0.00,,,0.00,,2013-02-12 19:02:00,
2013-02-12 14:11:00,58.0,27.0,29.93,ENE,69,3.0,7.0,30,0.00,,,0.00,,2013-02-12 19:11:00,
2013-02-12 14:21:00,58.0,27.0,29.92,NE,43,0.0,4.0,30,0.00,,,0.00,,2013-02-12 19:21:00,
2013-02-12 14:32:00,59.0,27.0,29.92,North,360,1.0,6.0,29,0.00,,,0.00,,2013-02-12 19:32:00,
2013-02-12 14:42:00,59.0,27.0,29.92,North,360,1.0,6.0,29,0.00,,,0.00,,2013-02-12 19:42:00,
2013-02-12 14:51:00,59.0,28.0,29.88,NE,43,0.0,5.0,30,0.00,,,0.00,,2013-02-12 19:51:00,
2013-02-12 15:01:00,59.0,27.0,29.86,SE,128,0.0,5.0,29,0.00,,,0.00,,2013-02-12 20:01:00,
2013-02-12 15:11:00,59.0,27.0,29.86,SE,128,0.0,5.0,29,0.00,,,0.00,,2013-02-12 20:11:00,
2013-02-12 15:21:00,58.0,26.0,29.91,East,96,1.0,6.0,29,0.00,,,0.00,,2013-02-12 20:21:00,
2013-02-12 15:32:00,59.0,25.0,29.95,WNW,298,2.0,8.0,27,0.00,,,0.00,,2013-02-12 20:32:00,
2013-02-12 15:41:00,59.0,25.0,29.95,WNW,298,2.0,8.0,27,0.00,,,0.00,,2013-02-12 20:41:00,
2013-02-12 15:52:00,60.0,26.0,29.93,South,184,3.0,8.0,27,0.00,,,0.00,,2013-02-12 20:52:00,
2013-02-12 16:02:00,59.0,25.0,29.94,SSW,203,2.0,7.0,27,0.00,,,0.00,,2013-02-12 21:02:00,
2013-02-12 16:11:00,59.0,25.0,29.94,SSW,203,2.0,7.0,27,0.00,,,0.00,,2013-02-12 21:11:00,
2013-02-12 16:21:00,58.0,28.0,29.95,South,178,3.0,13.0,31,0.00,,,0.00,,2013-02-12 21:21:00,
2013-02-12 16:32:00,58.0,28.0,29.94,SSW,208,0.0,8.0,31,0.00,,,0.00,,2013-02-12 21:32:00,
2013-02-12 16:42:00,58.0,28.0,29.94,SSW,208,0.0,8.0,31,0.00,,,0.00,,2013-02-12 21:42:00,
2013-02-12 16:51:00,58.0,28.0,29.94,SSW,208,0.0,8.0,31,0.00,,,0.00,,2013-02-12 21:51:00,
2013-02-12 17:01:00,58.0,28.0,29.92,SSE,152,2.0,8.0,31,0.00,,,0.00,,2013-02-12 22:01:00,
2013-02-12 17:12:00,58.0,28.0,29.92,SSE,152,2.0,8.0,31,0.00,,,0.00,,2013-02-12 22:12:00,
2013-02-12 17:22:00,57.0,28.0,29.93,South,185,0.0,7.0,33,0.00,,,0.00,,2013-02-12 22:22:00,
2013-02-12 17:32:00,56.0,28.0,29.94,SSE,166,1.0,4.0,34,0.00,,,0.00,,2013-02-12 22:32:00,
2013-02-12 17:42:00,56.0,28.0,29.94,SSE,166,1.0,4.0,34,0.00,,,0.00,,2013-02-12 22:42:00,
2013-02-12 17:51:00,55.0,28.0,29.94,South,182,0.0,4.0,35,0.00,,,0.00,,2013-02-12 22:51:00,
2013-02-12 18:02:00,54.0,28.0,29.94,South,182,0.0,1.0,37,0.00,,,0.00,,2013-02-12 23:02:00,
2013-02-12 18:11:00,54.0,29.0,29.94,South,182,0.0,0.0,38,0.00,,,0.00,,2013-02-12 23:11:00,
2013-02-12 18:21:00,54.0,29.0,29.94,South,182,0.0,0.0,38,0.00,,,0.00,,2013-02-12 23:21:00,
2013-02-12 18:32:00,53.0,29.0,29.94,South,182,0.0,0.0,40,0.00,,,0.00,,2013-02-12 23:32:00,
2013-02-12 18:42:00,53.0,29.0,29.94,South,182,0.0,0.0,40,0.00,,,0.00,,2013-02-12 23:42:00,
2013-02-12 18:52:00,52.0,30.0,29.95,South,182,0.0,0.0,43,0.00,,,0.00,,2013-02-12 23:52:00,
2013-02-12 19:02:00,51.0,30.0,29.95,South,182,0.0,0.0,44,0.00,,,0.00,,2013-02-13 00:02:00,
2013-02-12 19:11:00,51.0,30.0,29.95,South,182,0.0,0.0,44,0.00,,,0.00,,2013-02-13 00:11:00,
2013-02-12 19:22:00,50.0,32.0,29.94,South,182,0.0,0.0,49,0.00,,,0.00,,2013-02-13 00:22:00,
2013-02-12 19:32:00,49.0,32.0,29.93,South,182,0.0,0.0,51,0.00,,,0.00,,2013-02-13 00:32:00,
2013-02-12 19:42:00,49.0,32.0,29.93,South,182,0.0,0.0,51,0.00,,,0.00,,2013-02-13 00:42:00,
2013-02-12 19:52:00,48.0,32.0,29.93,South,182,0.0,0.0,53,0.00,,,0.00,,2013-02-13 00:52:00,
2013-02-12 20:01:00,47.0,32.0,29.93,South,182,0.0,0.0,56,0.00,,,0.00,,2013-02-13 01:01:00,
2013-02-12 20:11:00,47.0,32.0,29.93,South,182,0.0,0.0,56,0.00,,,0.00,,2013-02-13 01:11:00,
2013-02-12 20:21:00,46.0,31.0,29.92,South,182,0.0,0.0,56,0.00,,,0.00,,2013-02-13 01:21:00,
2013-02-12 20:32:00,45.0,32.0,29.92,South,182,0.0,0.0,59,0.00,,,0.00,,2013-02-13 01:32:00,
2013-02-12 20:42:00,45.0,32.0,29.92,South,182,0.0,0.0,59,0.00,,,0.00,,2013-02-13 01:42:00,
2013-02-12 20:52:00,45.0,32.0,29.91,South,182,0.0,0.0,59,0.00,,,0.00,,2013-02-13 01:52:00,
2013-02-12 21:01:00,44.0,32.0,29.91,South,182,0.0,0.0,63,0.00,,,0.00,,2013-02-13 02:01:00,
2013-02-12 21:11:00,44.0,32.0,29.91,South,182,0.0,0.0,63,0.00,,,0.00,,2013-02-13 02:11:00,
2013-02-12 21:22:00,43.0,32.0,29.92,South,182,0.0,0.0,65,0.00,,,0.00,,2013-02-13 02:22:00,
2013-02-12 21:32:00,43.0,31.0,29.93,South,182,0.0,0.0,63,0.00,,,0.00,,2013-02-13 02:32:00,
2013-02-12 21:42:00,43.0,31.0,29.93,South,182,0.0,0.0,63,0.00,,,0.00,,2013-02-13 02:42:00,
2013-02-12 21:52:00,43.0,31.0,29.93,South,182,0.0,0.0,62,0.00,,,0.00,,2013-02-13 02:52:00,
2013-02-12 22:01:00,43.0,32.0,29.93,South,182,0.0,0.0,64,0.00,,,0.00,,2013-02-13 03:01:00,
2013-02-12 22:11:00,43.0,32.0,29.94,South,182,0.0,0.0,65,0.00,,,0.00,,2013-02-13 03:11:00,
2013-02-12 22:21:00,43.0,32.0,29.94,South,182,0.0,0.0,65,0.00,,,0.00,,2013-02-13 03:21:00,
2013-02-12 22:32:00,42.0,32.0,29.94,South,182,0.0,0.0,67,0.00,,,0.00,,2013-02-13 03:32:00,
2013-02-12 22:42:00,42.0,32.0,29.94,South,182,0.0,0.0,67,0.00,,,0.00,,2013-02-13 03:42:00,
2013-02-12 22:51:00,42.0,31.0,29.94,South,182,0.0,1.0,66,0.00,,,0.00,,2013-02-13 03:51:00,
2013-02-12 23:01:00,42.0,31.0,29.94,South,182,0.0,1.0,66,0.00,,,0.00,,2013-02-13 04:01:00,
2013-02-12 23:11:00,42.0,31.0,29.94,South,182,0.0,1.0,66,0.00,,,0.00,,2013-02-13 04:11:00,
2013-02-12 23:21:00,42.0,32.0,29.93,South,182,0.0,0.0,68,0.00,,,0.00,,2013-02-13 04:21:00,
2013-02-12 23:32:00,42.0,32.0,29.93,South,182,0.0,0.0,68,0.00,,,0.00,,2013-02-13 04:32:00,
2013-02-12 23:42:00,42.0,32.0,29.93,South,182,0.0,0.0,68,0.00,,,0.00,,2013-02-13 04:42:00,
2013-02-12 23:51:00,42.0,33.0,29.93,South,182,0.0,0.0,71,0.00,,,0.00,,2013-02-13 04:51:00,